STARLINK-32163 (60262 NORAD) Tracking and Keplerian Element Data

This shows tracking and keplerian element data for the satellite.

Feedback or suggestion? Click here.




ElementValue
Catalog60262
NameSTARLINK-32163
Epoch Orbit1309
Epoch Day286.28055973
Epoch Year2024
RAAN278.5703
Inclination53.1587
Eccentricity0.0001533
Argument of Perigee98.6091
Mean Anonmoly261.5087
Mean Motion15.39618039
Decay Rate5.487E-05
L11 60262U 24131H 24286.28055973 .00005487 00000+0 14706-3 0 9992
L22 60262 53.1587 278.5703 0001533 98.6091 261.5087 15.39618039 13091



Live tracking and technical data element details for STARLINK-32163 (NORAD 60262). STARLINK-32163 can be tracked NOW for your location showing map with azimuth and elevation plus other details from your city location.







IsCatalogInMostPopularTable: catalog: 60262, numindb: 10
Update: records affected: 1



GetName: 60262 STARLINK-32163

Hit Count: updated at: Thu, 23 Jan 2025 13:31:47 GMT